Other Surface Observations
Issued by NWS Charleston, SC

Home | Current Version | Previous Version | Text Only | Print | Product List | Glossary On
Versions: 1 2 3 4 5 6 7 8 9 10 11 12 13 14 15 16 17 18 19 20 21 22 23 24 25 26 27 28 29 30 31 32 33 34 35 36 37 38 39 40 41 42 43 44 45 46 47 48 49 50
000
SXUS52 KCHS 281628
OSOCHS

MARINE OBSERVATIONS
NATIONAL WEATHER SERVICE CHARLESTON SC
1200 PM EDT SAT MAY 28 2016

...DOWNTOWN CHARLESTON AND HARBOR...

CITY           SKY/WX    TMP DP  RH WIND       PRES   REMARKS
WATERFRONT PRK   N/A     77  72  84 NE10      30.09S

...LAKE MOULTRIE...

CITY           SKY/WX    TMP DP  RH WIND       PRES   REMARKS
PINOPOLIS        N/A     81  72  74 NE7       30.05R

...LAKE AND SUPPLEMENTAL COASTAL OBSERVATIONS...

STATION/POSITION TIME  TEMP    WIND        PRES    WAVE   SWELL
                       AIR SEA DIR/SP/G            HT/PER HT/PER/DIR
                 (UTC) (F)     (DEG/KT/KT) (MB)    (FT/S) (FT/S/D)
FORT PULASKI     1600   76 77   10/  7/  9 1019.9R
SAPELO ISLAND    1600   81      30/ 13     1019.0S
WINYAH BAY       1500   76      60/ 14     1020.0R
LAKE MURRAY      1600   77      70/  6/  9 1020.7F
ACE BASIN NERRS  1500   79      40/  3     1020.0R


...C-MAN AND BUOY OBSERVATIONS...

STATION/POSITION TIME  TEMP    WIND        PRES    WAVE   SWELL
                       AIR SEA DIR/SP/G            HT/PER HT/PER/DIR
                 (UTC) (F)     (DEG/KT/KT) (MB)    (FT/S) (FT/S/D)
BUOY 41004       1550   75 76   10/ 16/ 17 1017.9F   6/10   5/10
BUOY 41008       1550   75 76   40/ 16/ 19 1018.4S   5/ 4   2/120/ 9
FOLLY BEACH CMAN 1600   76      50/ 16/ 18 1020.1R
CAPERS NS BUOY   1608   75 76   50/ 16/ 21 1019.5R
FRIPP NS BUOY    1608   76 76   60/ 16/ 21 1018.7R
5E ST. MARYS GA  1601      78                N/A     4/ 8


STATION/POSITION TIME  TEMP    WIND        PRES    WAVE   SWELL
                       AIR SEA DIR/SP/G            HT/PER HT/PER/DIR
                 (UTC) (F)     (DEG/KT/KT) (MB)    (FT/S) (FT/S/D)
FRYING PAN BUOY  1600   74 76   40/ 14/ 17 1019.6R
BUOY 41025       1550   77 78  100/ 12/ 16 1022.3R   5/ 9   3/130/ 9
CAPE LOOKOUT NC  1600   76      60/  9/  9 1021.7R
BUOY 41002       1550   75 77  110/ 19/ 21 1019.2F   3/ 7   2/120/ 7
BUOY 41010       1520   78 78  280/ 10/ 12 1015.6R
ST AUGUSTINE FL  1600   77 79   10/ 18/ 18 1018.7R

$$




USA.gov is the U.S. government's official web portal to all federal, state and local government web resources and services.